Wetterdaten: Freitag, 20.03.2015
Datum Zeit Auen-Temp. A-Temp. 2 Luftfeuchte Luftfeuchte Luftdruck Regen Wind Richtung Richtung Taupunkt Windchill Windben
20.03.2015 00:00 0,0 C 0,3 C 73 % 73 % 1022,8 hPa 0,0 l/m 0,0 km/h (0 Bft) O-NO 67 -4,2 C -2,2 C 0,0 km/h (0 Bft)
20.03.2015 00:05 0,0 C 0,2 C 74 % 74 % 1022,6 hPa 0,0 l/m 0,0 km/h (0 Bft) O-NO 67 -4,1 C -2,0 C 0,0 km/h (0 Bft)
20.03.2015 00:10 0,0 C 0,1 C 74 % 74 % 1022,6 hPa 0,0 l/m 0,0 km/h (0 Bft) O-NO 67 -4,1 C -2,2 C 0,0 km/h (0 Bft)
20.03.2015 00:15 -0,2 C -0,2 C 74 % 74 % 1022,6 hPa 0,0 l/m 0,0 km/h (0 Bft) O-NO 67 -4,3 C -2,3 C 0,0 km/h (0 Bft)
20.03.2015 00:20 -0,4 C -0,4 C 74 % 74 % 1022,6 hPa 0,0 l/m 0,0 km/h (0 Bft) O-NO 67 -4,5 C -2,6 C 0,0 km/h (0 Bft)
20.03.2015 00:25 -0,4 C -0,4 C 74 % 74 % 1022,4 hPa 0,0 l/m 0,0 km/h (0 Bft) O-NO 67 -4,5 C -2,7 C 0,0 km/h (0 Bft)
20.03.2015 00:30 -0,4 C -0,3 C 75 % 75 % 1022,4 hPa 0,0 l/m 0,0 km/h (0 Bft) SO 135 -4,3 C -2,6 C 0,0 km/h (0 Bft)
20.03.2015 00:35 -0,4 C -0,3 C 75 % 75 % 1022,4 hPa 0,0 l/m 0,0 km/h (0 Bft) O-SO 112 -4,3 C -2,6 C 0,0 km/h (0 Bft)
20.03.2015 00:40 -0,4 C -0,3 C 75 % 75 % 1022,4 hPa 0,0 l/m 0,0 km/h (0 Bft) O-SO 112 -4,3 C -2,6 C 0,0 km/h (0 Bft)
20.03.2015 00:45 -0,4 C -0,4 C 75 % 75 % 1022,4 hPa 0,0 l/m 0,0 km/h (0 Bft) O-SO 112 -4,3 C -2,6 C 0,0 km/h (0 Bft)
20.03.2015 00:50 -0,5 C -0,5 C 75 % 75 % 1022,4 hPa 0,0 l/m 0,0 km/h (0 Bft) O-SO 112 -4,4 C -2,8 C 0,0 km/h (0 Bft)
20.03.2015 00:55 -0,6 C -0,6 C 75 % 75 % 1022,4 hPa 0,0 l/m 0,0 km/h (0 Bft) O-SO 112 -4,5 C -3,0 C 0,0 km/h (0 Bft)
20.03.2015 01:00 -0,8 C -0,8 C 75 % 75 % 1022,4 hPa 0,0 l/m 0,0 km/h (0 Bft) O-SO 112 -4,7 C -3,1 C 0,0 km/h (0 Bft)
20.03.2015 01:05 -0,9 C -0,9 C 75 % 75 % 1022,5 hPa 0,0 l/m 0,0 km/h (0 Bft) O-SO 112 -4,8 C -3,1 C 0,0 km/h (0 Bft)
20.03.2015 01:10 -1,1 C -1,1 C 75 % 75 % 1022,5 hPa 0,0 l/m 0,0 km/h (0 Bft) SO 135 -5,0 C -3,2 C 0,0 km/h (0 Bft)
20.03.2015 01:15 -1,1 C -1,0 C 76 % 76 % 1022,5 hPa 0,0 l/m 0,0 km/h (0 Bft) O-NO 67 -4,8 C -3,2 C 0,0 km/h (0 Bft)
20.03.2015 01:20 -1,1 C -1,1 C 76 % 76 % 1022,5 hPa 0,0 l/m 0,0 km/h (0 Bft) SO 135 -4,8 C -3,2 C 0,0 km/h (0 Bft)
20.03.2015 01:25 -1,1 C -1,0 C 76 % 76 % 1022,5 hPa 0,0 l/m 0,0 km/h (0 Bft) O-NO 67 -4,8 C -3,2 C 0,0 km/h (0 Bft)
20.03.2015 01:30 -1,1 C -1,1 C 76 % 76 % 1022,5 hPa 0,0 l/m 0,0 km/h (0 Bft) O-NO 67 -4,8 C -3,2 C 0,0 km/h (0 Bft)
20.03.2015 01:35 -1,3 C -1,3 C 76 % 76 % 1022,5 hPa 0,0 l/m 0,0 km/h (0 Bft) O-NO 67 -5,0 C -3,2 C 0,0 km/h (0 Bft)
20.03.2015 01:40 -1,3 C -1,3 C 76 % 76 % 1022,5 hPa 0,0 l/m 0,0 km/h (0 Bft) O-NO 67 -5,0 C -3,2 C 0,0 km/h (0 Bft)
20.03.2015 01:45 -1,4 C -1,4 C 76 % 76 % 1022,2 hPa 0,0 l/m 0,0 km/h (0 Bft) O-NO 67 -5,1 C -3,2 C 0,0 km/h (0 Bft)
20.03.2015 01:50 -1,4 C -1,3 C 77 % 77 % 1022,2 hPa 0,0 l/m 0,0 km/h (0 Bft) O-NO 67 -4,9 C -3,2 C 0,0 km/h (0 Bft)
20.03.2015 01:55 -1,4 C -1,0 C 77 % 77 % 1022,2 hPa 0,0 l/m 0,0 km/h (0 Bft) O-NO 67 -4,9 C -3,2 C 0,0 km/h (0 Bft)
20.03.2015 02:00 -1,4 C -1,1 C 77 % 77 % 1022,2 hPa 0,0 l/m 0,0 km/h (0 Bft) O-NO 67 -4,9 C -3,2 C 0,0 km/h (0 Bft)
20.03.2015 02:05 -1,4 C -1,0 C 77 % 77 % 1022,2 hPa 0,0 l/m 0,0 km/h (0 Bft) O-NO 67 -4,9 C -3,2 C 0,0 km/h (0 Bft)
20.03.2015 02:10 -1,4 C -0,9 C 78 % 78 % 1022,2 hPa 0,0 l/m 0,0 km/h (0 Bft) O-NO 67 -4,7 C -3,2 C 0,0 km/h (0 Bft)
20.03.2015 02:15 -1,6 C -1,0 C 82 % 77 % 1022,2 hPa 0,0 l/m 0,0 km/h (0 Bft) O-NO 67 -4,3 C -3,2 C 0,0 km/h (0 Bft)
20.03.2015 02:20 -1,8 C -1,1 C 81 % 77 % 1022,2 hPa 0,0 l/m 0,0 km/h (0 Bft) O-NO 67 -4,6 C -3,2 C 0,0 km/h (0 Bft)
20.03.2015 02:25 -2,0 C -1,3 C 81 % 77 % 1022,1 hPa 0,0 l/m 0,0 km/h (0 Bft) O-NO 67 -4,8 C -3,2 C 0,0 km/h (0 Bft)
20.03.2015 02:30 -2,0 C -1,5 C 81 % 77 % 1022,1 hPa 0,0 l/m 0,0 km/h (0 Bft) O-NO 67 -4,8 C -3,2 C 0,0 km/h (0 Bft)
20.03.2015 02:35 -2,1 C -1,5 C 81 % 78 % 1022,1 hPa 0,0 l/m 0,0 km/h (0 Bft) O-NO 67 -4,9 C -3,2 C 0,0 km/h (0 Bft)
20.03.2015 02:40 -2,3 C -1,6 C 81 % 78 % 1022,1 hPa 0,0 l/m 0,0 km/h (0 Bft) O-NO 67 -5,1 C -3,2 C 0,0 km/h (0 Bft)
20.03.2015 02:45 -1,7 C -1,4 C 82 % 78 % 1022,0 hPa 0,0 l/m 0,0 km/h (0 Bft) O-NO 67 -4,4 C -3,2 C 0,0 km/h (0 Bft)
20.03.2015 02:50 -1,9 C -1,4 C 82 % 78 % 1022,0 hPa 0,0 l/m 0,0 km/h (0 Bft) O-NO 67 -4,6 C -3,2 C 0,0 km/h (0 Bft)
20.03.2015 02:55 -2,0 C -1,4 C 82 % 78 % 1022,0 hPa 0,0 l/m 0,0 km/h (0 Bft) O-NO 67 -4,7 C -3,2 C 0,0 km/h (0 Bft)
20.03.2015 03:00 -2,0 C -1,4 C 82 % 78 % 1022,0 hPa 0,0 l/m 0,0 km/h (0 Bft) O-NO 67 -4,7 C -3,2 C 0,0 km/h (0 Bft)
20.03.2015 03:05 -2,1 C -1,5 C 82 % 78 % 1021,9 hPa 0,0 l/m 0,0 km/h (0 Bft) O-NO 67 -4,7 C -3,2 C 0,0 km/h (0 Bft)
20.03.2015 03:10 -2,0 C -1,4 C 82 % 78 % 1021,9 hPa 0,0 l/m 0,0 km/h (0 Bft) O-NO 67 -4,7 C -3,2 C 0,0 km/h (0 Bft)
20.03.2015 03:15 -1,9 C -1,5 C 82 % 78 % 1021,9 hPa 0,0 l/m 0,0 km/h (0 Bft) O-NO 67 -4,6 C -3,2 C 0,0 km/h (0 Bft)
20.03.2015 03:20 -2,0 C -1,5 C 83 % 78 % 1021,9 hPa 0,0 l/m 0,0 km/h (0 Bft) O-NO 67 -4,5 C -3,2 C 0,0 km/h (0 Bft)
20.03.2015 03:25 -1,3 C -1,3 C 84 % 79 % 1021,9 hPa 0,0 l/m 0,0 km/h (0 Bft) O-NO 67 -3,6 C -3,2 C 0,0 km/h (0 Bft)
20.03.2015 03:30 -1,5 C -1,1 C 84 % 79 % 1021,9 hPa 0,0 l/m 0,0 km/h (0 Bft) O-NO 67 -3,8 C -3,2 C 0,0 km/h (0 Bft)
20.03.2015 03:35 -1,6 C -1,3 C 83 % 79 % 1021,9 hPa 0,0 l/m 0,0 km/h (0 Bft) O-NO 67 -4,1 C -3,2 C 0,0 km/h (0 Bft)
20.03.2015 03:40 -2,0 C -1,5 C 83 % 79 % 1021,9 hPa 0,0 l/m 0,0 km/h (0 Bft) O-NO 67 -4,5 C -3,2 C 0,0 km/h (0 Bft)
20.03.2015 03:45 -2,3 C -1,8 C 83 % 79 % 1021,9 hPa 0,0 l/m 0,0 km/h (0 Bft) O-NO 67 -4,8 C -3,2 C 0,0 km/h (0 Bft)
20.03.2015 03:50 -2,3 C -1,8 C 83 % 79 % 1021,9 hPa 0,0 l/m 0,0 km/h (0 Bft) O-NO 67 -4,8 C -3,2 C 0,0 km/h (0 Bft)
20.03.2015 03:55 -2,4 C -1,9 C 83 % 79 % 1021,9 hPa 0,0 l/m 0,0 km/h (0 Bft) O-NO 67 -4,9 C -3,2 C 0,0 km/h (0 Bft)
20.03.2015 04:00 -2,2 C -1,8 C 83 % 79 % 1021,9 hPa 0,0 l/m 0,0 km/h (0 Bft) O-NO 67 -4,7 C -3,2 C 0,0 km/h (0 Bft)
20.03.2015 04:05 -2,3 C -1,8 C 83 % 79 % 1022,1 hPa 0,0 l/m 0,0 km/h (0 Bft) O-NO 67 -4,8 C -3,2 C 0,0 km/h (0 Bft)
20.03.2015 04:10 -2,3 C -1,9 C 83 % 79 % 1022,1 hPa 0,0 l/m 0,0 km/h (0 Bft) O-NO 67 -4,8 C -3,2 C 0,0 km/h (0 Bft)
20.03.2015 04:15 -2,5 C -2,0 C 83 % 79 % 1022,1 hPa 0,0 l/m 0,0 km/h (0 Bft) O-NO 67 -5,0 C -3,2 C 0,0 km/h (0 Bft)
20.03.2015 04:20 -2,5 C -2,0 C 83 % 79 % 1022,1 hPa 0,0 l/m 0,0 km/h (0 Bft) O-NO 67 -5,0 C -3,2 C 0,0 km/h (0 Bft)
20.03.2015 04:25 -2,7 C -2,1 C 83 % 79 % 1021,9 hPa 0,0 l/m 0,0 km/h (0 Bft) O-NO 67 -5,2 C -3,2 C 0,0 km/h (0 Bft)
20.03.2015 04:30 -2,7 C -2,3 C 83 % 79 % 1021,9 hPa 0,0 l/m 0,0 km/h (0 Bft) O-NO 67 -5,2 C -3,2 C 0,0 km/h (0 Bft)
20.03.2015 04:35 -2,0 C -1,8 C 84 % 79 % 1021,9 hPa 0,0 l/m 0,0 km/h (0 Bft) O-NO 67 -4,3 C -3,2 C 0,0 km/h (0 Bft)
20.03.2015 04:40 -1,5 C -1,5 C 84 % 79 % 1021,9 hPa 0,0 l/m 0,0 km/h (0 Bft) O-NO 67 -3,8 C -3,2 C 0,0 km/h (0 Bft)
20.03.2015 04:45 -1,4 C -0,9 C 85 % 80 % 1022,0 hPa 0,0 l/m 0,0 km/h (0 Bft) O-NO 67 -3,6 C -3,2 C 0,0 km/h (0 Bft)
20.03.2015 04:50 -1,2 C -0,8 C 85 % 80 % 1022,0 hPa 0,0 l/m 0,0 km/h (0 Bft) O-NO 67 -3,4 C -3,2 C 0,0 km/h (0 Bft)
20.03.2015 04:55 -1,3 C -0,8 C 85 % 80 % 1022,0 hPa 0,0 l/m 0,0 km/h (0 Bft) O-NO 67 -3,5 C -3,2 C 0,0 km/h (0 Bft)
20.03.2015 05:00 -2,1 C -1,3 C 84 % 79 % 1022,0 hPa 0,0 l/m 0,0 km/h (0 Bft) O-NO 67 -4,4 C -3,2 C 0,0 km/h (0 Bft)
20.03.2015 05:05 -2,6 C -1,8 C 83 % 79 % 1021,9 hPa 0,0 l/m 0,0 km/h (0 Bft) O-NO 67 -5,1 C -3,2 C 0,0 km/h (0 Bft)
20.03.2015 05:10 -2,7 C -1,9 C 83 % 79 % 1021,9 hPa 0,0 l/m 0,0 km/h (0 Bft) O-NO 67 -5,2 C -3,2 C 0,0 km/h (0 Bft)
20.03.2015 05:15 -2,9 C -2,1 C 83 % 79 % 1021,9 hPa 0,0 l/m 0,0 km/h (0 Bft) O-NO 67 -5,4 C -3,2 C 0,0 km/h (0 Bft)
20.03.2015 05:20 -2,9 C -2,1 C 83 % 79 % 1021,9 hPa 0,0 l/m 0,0 km/h (0 Bft) O-NO 67 -5,4 C -3,2 C 0,0 km/h (0 Bft)
20.03.2015 05:25 -2,9 C -2,1 C 83 % 79 % 1021,9 hPa 0,0 l/m 0,0 km/h (0 Bft) O-NO 67 -5,4 C -3,2 C 0,0 km/h (0 Bft)
20.03.2015 05:30 -3,0 C -2,4 C 83 % 79 % 1021,9 hPa 0,0 l/m 0,0 km/h (0 Bft) O-NO 67 -5,5 C -3,2 C 0,0 km/h (0 Bft)
20.03.2015 05:35 -3,1 C -2,5 C 83 % 79 % 1021,9 hPa 0,0 l/m 0,0 km/h (0 Bft) O-NO 67 -5,6 C -3,2 C 0,0 km/h (0 Bft)
20.03.2015 05:40 -3,2 C -2,5 C 82 % 79 % 1021,9 hPa 0,0 l/m 0,0 km/h (0 Bft) O-NO 67 -5,8 C -3,2 C 0,0 km/h (0 Bft)
20.03.2015 05:45 -3,3 C -2,6 C 82 % 79 % 1021,9 hPa 0,0 l/m 0,0 km/h (0 Bft) O-NO 67 -5,9 C -3,2 C 0,0 km/h (0 Bft)
20.03.2015 05:50 -3,1 C -2,5 C 83 % 79 % 1021,9 hPa 0,0 l/m 0,0 km/h (0 Bft) O-NO 67 -5,6 C -3,2 C 0,0 km/h (0 Bft)
20.03.2015 05:55 -3,0 C -2,4 C 83 % 79 % 1021,9 hPa 0,0 l/m 0,0 km/h (0 Bft) O-NO 67 -5,5 C -3,2 C 0,0 km/h (0 Bft)
20.03.2015 06:00 -2,8 C -2,3 C 83 % 79 % 1021,9 hPa 0,0 l/m 0,0 km/h (0 Bft) O-NO 67 -5,3 C -3,2 C 0,0 km/h (0 Bft)
20.03.2015 06:05 -2,7 C -2,1 C 84 % 80 % 1022,0 hPa 0,0 l/m 0,0 km/h (0 Bft) O-NO 67 -5,0 C -3,2 C 0,0 km/h (0 Bft)
20.03.2015 06:10 -2,7 C -2,1 C 84 % 80 % 1022,0 hPa 0,0 l/m 0,0 km/h (0 Bft) O-NO 67 -5,0 C -3,2 C 0,0 km/h (0 Bft)
20.03.2015 06:15 -2,8 C -2,1 C 84 % 80 % 1022,0 hPa 0,0 l/m 0,0 km/h (0 Bft) O-NO 67 -5,1 C -3,2 C 0,0 km/h (0 Bft)
20.03.2015 06:20 -3,0 C -2,4 C 84 % 80 % 1022,0 hPa 0,0 l/m 0,0 km/h (0 Bft) O-NO 67 -5,3 C -3,2 C 0,0 km/h (0 Bft)
20.03.2015 06:25 -2,7 C -2,3 C 84 % 80 % 1022,1 hPa 0,0 l/m 0,0 km/h (0 Bft) O-NO 67 -5,0 C -3,2 C 0,0 km/h (0 Bft)
20.03.2015 06:30 -2,7 C -2,3 C 84 % 80 % 1022,1 hPa 0,0 l/m 0,0 km/h (0 Bft) O-NO 67 -5,0 C -3,2 C 0,0 km/h (0 Bft)
20.03.2015 06:35 -2,9 C -2,5 C 84 % 80 % 1022,1 hPa 0,0 l/m 0,0 km/h (0 Bft) O-NO 67 -5,2 C -3,2 C 0,0 km/h (0 Bft)
20.03.2015 06:40 -3,1 C -2,6 C 84 % 80 % 1022,1 hPa 0,0 l/m 0,0 km/h (0 Bft) O-NO 67 -5,4 C -3,2 C 0,0 km/h (0 Bft)
20.03.2015 06:45 -3,2 C -2,6 C 84 % 80 % 1022,1 hPa 0,0 l/m 0,0 km/h (0 Bft) O-NO 67 -5,5 C -3,2 C 0,0 km/h (0 Bft)
20.03.2015 06:50 -3,3 C -2,8 C 84 % 80 % 1022,1 hPa 0,0 l/m 0,0 km/h (0 Bft) O-NO 67 -5,6 C -3,2 C 0,0 km/h (0 Bft)
20.03.2015 06:55 -3,3 C -2,9 C 83 % 80 % 1022,1 hPa 0,0 l/m 0,0 km/h (0 Bft) O-NO 67 -5,8 C -3,2 C 0,0 km/h (0 Bft)
20.03.2015 07:00 -3,1 C -2,9 C 84 % 80 % 1022,1 hPa 0,0 l/m 0,0 km/h (0 Bft) O-NO 67 -5,4 C -3,2 C 0,0 km/h (0 Bft)
20.03.2015 07:05 -3,0 C -2,8 C 84 % 80 % 1022,1 hPa 0,0 l/m 0,0 km/h (0 Bft) O-NO 67 -5,3 C -3,2 C 0,0 km/h (0 Bft)
20.03.2015 07:10 -2,8 C -2,6 C 84 % 80 % 1022,1 hPa 0,0 l/m 0,0 km/h (0 Bft) O-NO 67 -5,1 C -3,2 C 0,0 km/h (0 Bft)
20.03.2015 07:15 -2,5 C -2,5 C 84 % 81 % 1022,1 hPa 0,0 l/m 0,0 km/h (0 Bft) O-NO 67 -4,8 C -3,2 C 0,0 km/h (0 Bft)
20.03.2015 07:20 -2,5 C -2,5 C 81 % 81 % 1022,1 hPa 0,0 l/m 0,0 km/h (0 Bft) O-NO 67 -5,3 C -3,2 C 0,0 km/h (0 Bft)
20.03.2015 07:25 -2,1 C -2,1 C 81 % 81 % 1021,9 hPa 0,0 l/m 0,0 km/h (0 Bft) O-NO 67 -4,9 C -3,2 C 0,0 km/h (0 Bft)
20.03.2015 07:30 -2,0 C -2,0 C 85 % 81 % 1021,9 hPa 0,0 l/m 0,0 km/h (0 Bft) O-NO 67 -4,2 C -3,2 C 0,0 km/h (0 Bft)
20.03.2015 07:35 -1,8 C -1,8 C 85 % 81 % 1021,9 hPa 0,0 l/m 0,0 km/h (0 Bft) O-NO 67 -4,0 C -3,2 C 0,0 km/h (0 Bft)
20.03.2015 07:40 -1,8 C -1,8 C 81 % 81 % 1021,9 hPa 0,0 l/m 0,0 km/h (0 Bft) O-NO 67 -4,6 C -3,2 C 0,0 km/h (0 Bft)
20.03.2015 07:45 -1,6 C -1,6 C 82 % 82 % 1021,8 hPa 0,0 l/m 0,0 km/h (0 Bft) O-NO 67 -4,3 C -3,2 C 0,0 km/h (0 Bft)
20.03.2015 07:50 -1,5 C -1,5 C 82 % 82 % 1021,8 hPa 0,0 l/m 0,0 km/h (0 Bft) O-NO 67 -4,2 C -3,2 C 0,0 km/h (0 Bft)
20.03.2015 07:55 -1,0 C -1,0 C 82 % 82 % 1021,8 hPa 0,0 l/m 0,0 km/h (0 Bft) O-NO 67 -3,7 C -3,2 C 0,0 km/h (0 Bft)
20.03.2015 08:00 -0,5 C -0,5 C 82 % 82 % 1021,8 hPa 0,0 l/m 0,0 km/h (0 Bft) O-NO 67 -3,2 C -3,2 C 0,0 km/h (0 Bft)
20.03.2015 08:05 -0,3 C -0,3 C 82 % 82 % 1021,8 hPa 0,0 l/m 0,0 km/h (0 Bft) O-NO 67 -3,0 C -3,2 C 0,0 km/h (0 Bft)
20.03.2015 08:10 0,0 C 0,0 C 82 % 82 % 1021,8 hPa 0,0 l/m 0,0 km/h (0 Bft) SW 225 -2,7 C 4,8 C 0,0 km/h (0 Bft)
20.03.2015 08:15 0,4 C 0,4 C 83 % 83 % 1021,8 hPa 0,0 l/m 0,0 km/h (0 Bft) O-NO 67 -2,1 C 6,8 C 0,0 km/h (0 Bft)
20.03.2015 08:20 1,0 C 1,0 C 83 % 83 % 1021,8 hPa 0,0 l/m 0,0 km/h (0 Bft) O-NO 67 -1,6 C 8,0 C 0,0 km/h (0 Bft)
20.03.2015 08:25 2,0 C 2,0 C 83 % 83 % 1021,6 hPa 0,0 l/m 0,0 km/h (0 Bft) SO 135 -0,6 C 9,7 C 0,0 km/h (0 Bft)
20.03.2015 08:30 2,4 C 2,4 C 82 % 82 % 1021,6 hPa 0,0 l/m 0,0 km/h (0 Bft) SO 135 -0,4 C 10,5 C 0,0 km/h (0 Bft)
20.03.2015 08:35 3,2 C 3,2 C 81 % 81 % 1021,6 hPa 0,0 l/m 0,0 km/h (0 Bft) SO 135 0,3 C 12,1 C 0,0 km/h (0 Bft)
20.03.2015 08:40 3,6 C 3,6 C 80 % 80 % 1021,6 hPa 0,0 l/m 0,0 km/h (0 Bft) SO 135 0,5 C 13,1 C 0,0 km/h (0 Bft)
20.03.2015 08:45 4,3 C 4,3 C 79 % 79 % 1021,6 hPa 0,0 l/m 0,0 km/h (0 Bft) O-SO 112 1,0 C 14,1 C 0,0 km/h (0 Bft)
20.03.2015 08:50 4,6 C 4,6 C 79 % 79 % 1021,6 hPa 0,0 l/m 0,0 km/h (0 Bft) O-SO 112 1,3 C 14,7 C 0,0 km/h (0 Bft)
20.03.2015 08:55 5,2 C 5,2 C 78 % 78 % 1021,6 hPa 0,0 l/m 0,0 km/h (0 Bft) O-SO 112 1,7 C 15,5 C 0,0 km/h (0 Bft)
20.03.2015 09:00 5,8 C 5,8 C 77 % 77 % 1021,6 hPa 0,0 l/m 0,0 km/h (0 Bft) O-SO 112 2,1 C 16,1 C 0,0 km/h (0 Bft)
20.03.2015 09:05 6,4 C 6,4 C 75 % 75 % 1022,2 hPa 0,0 l/m 0,0 km/h (0 Bft) SW 225 2,3 C 17,0 C 0,0 km/h (0 Bft)
20.03.2015 09:10 6,7 C 6,7 C 74 % 74 % 1022,2 hPa 0,0 l/m 0,0 km/h (0 Bft) W-NW 292 2,4 C 17,5 C 0,0 km/h (0 Bft)
20.03.2015 09:15 7,4 C 7,4 C 73 % 73 % 1022,2 hPa 0,0 l/m 0,0 km/h (0 Bft) W 270 2,9 C 17,9 C 0,0 km/h (0 Bft)
20.03.2015 09:20 8,0 C 8,0 C 72 % 72 % 1022,2 hPa 0,0 l/m 0,0 km/h (0 Bft) NO 45 3,3 C 18,4 C 0,0 km/h (0 Bft)
20.03.2015 09:25 8,9 C 8,9 C 70 % 70 % 1022,6 hPa 0,0 l/m 0,0 km/h (0 Bft) O-NO 67 3,7 C 19,0 C 0,0 km/h (0 Bft)
20.03.2015 09:30 8,7 C 8,7 C 69 % 69 % 1022,6 hPa 0,0 l/m 0,0 km/h (0 Bft) O-NO 67 3,3 C 19,0 C 0,0 km/h (0 Bft)
20.03.2015 09:35 8,4 C 8,4 C 67 % 67 % 1022,6 hPa 0,0 l/m 0,0 km/h (0 Bft) O 90 2,6 C 18,6 C 0,0 km/h (0 Bft)
20.03.2015 09:40 8,2 C 8,2 C 66 % 66 % 1022,6 hPa 0,0 l/m 0,3 km/h (0 Bft) O-SO 112 2,2 C 17,7 C 0,0 km/h (0 Bft)
20.03.2015 09:45 8,2 C 8,2 C 65 % 65 % 1023,8 hPa 0,0 l/m 0,5 km/h (0 Bft) O 90 2,0 C 17,0 C 0,0 km/h (0 Bft)
20.03.2015 09:50 8,3 C 8,3 C 65 % 65 % 1023,8 hPa 0,0 l/m 0,5 km/h (0 Bft) O-NO 67 2,1 C 16,5 C 2,6 km/h (1 Bft)
20.03.2015 09:55 8,4 C 8,4 C 64 % 64 % 1023,8 hPa 0,0 l/m 0,5 km/h (0 Bft) W 270 2,0 C 15,9 C 0,0 km/h (0 Bft)
20.03.2015 10:00 8,7 C 8,7 C 64 % 64 % 1023,8 hPa 0,0 l/m 0,3 km/h (0 Bft) O-SO 112 2,3 C 16,0 C 2,6 km/h (1 Bft)
20.03.2015 10:05 8,9 C 8,9 C 63 % 63 % 1023,7 hPa 0,0 l/m 0,2 km/h (0 Bft) O-NO 67 2,2 C 15,7 C 1,9 km/h (1 Bft)
20.03.2015 10:10 8,8 C 8,8 C 63 % 63 % 1023,7 hPa 0,0 l/m 0,2 km/h (0 Bft) S-SO 157 2,2 C 15,3 C 0,0 km/h (0 Bft)
20.03.2015 10:15 8,7 C 8,7 C 61 % 61 % 1023,7 hPa 0,0 l/m 0,3 km/h (0 Bft) O-NO 67 1,6 C 14,3 C 0,0 km/h (0 Bft)
20.03.2015 10:20 8,6 C 8,6 C 61 % 61 % 1023,7 hPa 0,0 l/m 0,3 km/h (0 Bft) O 90 1,5 C 13,6 C 3,7 km/h (1 Bft)
20.03.2015 10:25 8,5 C 8,5 C 61 % 61 % 1023,6 hPa 0,0 l/m 0,2 km/h (0 Bft) N-NO 22 1,4 C 12,6 C 1,8 km/h (1 Bft)
20.03.2015 10:30 8,2 C 8,2 C 60 % 60 % 1023,6 hPa 0,0 l/m 0,2 km/h (0 Bft) O-NO 67 0,9 C 11,6 C 0,0 km/h (0 Bft)
20.03.2015 10:35 8,0 C 8,0 C 60 % 60 % 1023,6 hPa 0,0 l/m 0,2 km/h (0 Bft) SO 135 0,7 C 10,7 C 0,0 km/h (0 Bft)
20.03.2015 10:40 7,9 C 7,9 C 60 % 60 % 1023,6 hPa 0,0 l/m 0,0 km/h (0 Bft) NO 45 0,6 C 10,2 C 0,0 km/h (0 Bft)
20.03.2015 10:45 7,8 C 7,8 C 60 % 60 % 1023,3 hPa 0,0 l/m 0,0 km/h (0 Bft) O-SO 112 0,5 C 9,7 C 0,0 km/h (0 Bft)
20.03.2015 10:50 7,7 C 7,7 C 60 % 60 % 1023,3 hPa 0,0 l/m 0,0 km/h (0 Bft) O-NO 67 0,4 C 9,5 C 0,0 km/h (0 Bft)
20.03.2015 10:55 7,7 C 7,7 C 60 % 60 % 1023,3 hPa 0,0 l/m 0,0 km/h (0 Bft) O-NO 67 0,4 C 9,6 C 0,0 km/h (0 Bft)
20.03.2015 11:00 7,9 C 7,9 C 60 % 60 % 1023,3 hPa 0,0 l/m 0,0 km/h (0 Bft) O-SO 112 0,6 C 9,8 C 0,0 km/h (0 Bft)
20.03.2015 11:05 8,2 C 8,2 C 60 % 60 % 1022,8 hPa 0,0 l/m 0,0 km/h (0 Bft) N-NO 22 0,9 C 10,5 C 0,0 km/h (0 Bft)
20.03.2015 11:10 8,2 C 8,2 C 60 % 60 % 1022,8 hPa 0,0 l/m 0,3 km/h (0 Bft) O-SO 112 0,9 C 10,9 C 0,0 km/h (0 Bft)
20.03.2015 11:15 8,0 C 8,0 C 59 % 59 % 1022,8 hPa 0,0 l/m 1,6 km/h (1 Bft) O-NO 67 0,5 C 11,4 C 3,2 km/h (1 Bft)
20.03.2015 11:20 8,0 C 8,0 C 59 % 59 % 1022,8 hPa 0,0 l/m 2,3 km/h (1 Bft) NO 45 0,5 C 11,9 C 6,3 km/h (2 Bft)
20.03.2015 11:25 8,2 C 8,2 C 59 % 59 % 1022,8 hPa 0,0 l/m 2,4 km/h (1 Bft) NO 45 0,7 C 12,6 C 2,9 km/h (1 Bft)
20.03.2015 11:30 8,4 C 8,4 C 59 % 59 % 1022,8 hPa 0,0 l/m 2,4 km/h (1 Bft) N-NO 22 0,9 C 13,2 C 6,3 km/h (2 Bft)
20.03.2015 11:35 8,6 C 8,6 C 59 % 59 % 1022,8 hPa 0,0 l/m 2,7 km/h (1 Bft) N-NO 22 1,0 C 13,9 C 5,0 km/h (1 Bft)
20.03.2015 11:40 8,9 C 8,9 C 59 % 59 % 1022,8 hPa 0,0 l/m 3,4 km/h (1 Bft) O 90 1,3 C 14,6 C 7,4 km/h (2 Bft)
20.03.2015 11:45 9,1 C 9,1 C 58 % 58 % 1023,2 hPa 0,0 l/m 2,7 km/h (1 Bft) N-NW 337 1,3 C 15,4 C 2,7 km/h (1 Bft)
20.03.2015 11:50 9,1 C 9,1 C 57 % 57 % 1023,2 hPa 0,0 l/m 3,1 km/h (1 Bft) O-NO 67 1,0 C 15,6 C 4,3 km/h (1 Bft)
20.03.2015 11:55 9,4 C 9,4 C 57 % 57 % 1023,2 hPa 0,0 l/m 3,1 km/h (1 Bft) O-NO 67 1,3 C 16,4 C 5,3 km/h (1 Bft)
20.03.2015 12:00 9,4 C 9,4 C 57 % 57 % 1023,2 hPa 0,0 l/m 2,6 km/h (1 Bft) W-NW 292 1,3 C 16,5 C 4,8 km/h (1 Bft)
20.03.2015 12:05 9,6 C 9,6 C 56 % 56 % 1023,6 hPa 0,0 l/m 2,9 km/h (1 Bft) N 360 1,3 C 16,7 C 2,7 km/h (1 Bft)
20.03.2015 12:10 10,0 C 10,0 C 56 % 56 % 1023,6 hPa 0,0 l/m 2,6 km/h (1 Bft) NW 315 1,6 C 17,2 C 3,5 km/h (1 Bft)
20.03.2015 12:15 10,2 C 10,2 C 55 % 55 % 1023,6 hPa 0,0 l/m 2,4 km/h (1 Bft) O-NO 67 1,6 C 17,4 C 2,1 km/h (1 Bft)
20.03.2015 12:20 10,2 C 10,2 C 55 % 55 % 1023,6 hPa 0,0 l/m 3,1 km/h (1 Bft) N-NW 337 1,6 C 17,3 C 3,7 km/h (1 Bft)
20.03.2015 12:25 10,2 C 10,2 C 54 % 54 % 1023,9 hPa 0,0 l/m 3,7 km/h (1 Bft) N-NW 337 1,3 C 17,0 C 2,6 km/h (1 Bft)
20.03.2015 12:30 10,3 C 10,3 C 54 % 54 % 1023,9 hPa 0,0 l/m 3,9 km/h (1 Bft) NO 45 1,4 C 17,2 C 8,2 km/h (2 Bft)
20.03.2015 12:35 10,3 C 10,3 C 54 % 54 % 1023,9 hPa 0,0 l/m 3,2 km/h (1 Bft) NW 315 1,4 C 17,0 C 3,4 km/h (1 Bft)
20.03.2015 12:40 10,5 C 10,5 C 54 % 54 % 1023,9 hPa 0,0 l/m 3,5 km/h (1 Bft) O-SO 112 1,6 C 17,3 C 3,1 km/h (1 Bft)
20.03.2015 12:45 10,3 C 10,3 C 53 % 53 % 1023,9 hPa 0,0 l/m 3,4 km/h (1 Bft) O-SO 112 1,1 C 16,9 C 0,0 km/h (0 Bft)
20.03.2015 12:50 10,4 C 10,4 C 53 % 53 % 1023,9 hPa 0,0 l/m 3,4 km/h (1 Bft) NW 315 1,2 C 17,2 C 11,3 km/h (2 Bft)
20.03.2015 12:55 10,6 C 10,6 C 53 % 53 % 1023,9 hPa 0,0 l/m 3,2 km/h (1 Bft) O-NO 67 1,4 C 17,2 C 5,5 km/h (1 Bft)
20.03.2015 13:00 10,5 C 10,5 C 53 % 53 % 1023,9 hPa 0,0 l/m 3,7 km/h (1 Bft) O-NO 67 1,3 C 16,6 C 9,0 km/h (2 Bft)
20.03.2015 13:05 10,7 C 10,7 C 54 % 54 % 1023,8 hPa 0,0 l/m 3,2 km/h (1 Bft) N-NW 337 1,8 C 16,2 C 4,2 km/h (1 Bft)
20.03.2015 13:10 10,7 C 10,7 C 53 % 53 % 1023,8 hPa 0,0 l/m 2,9 km/h (1 Bft) O-SO 112 1,5 C 15,5 C 0,0 km/h (0 Bft)
20.03.2015 13:15 10,8 C 10,8 C 53 % 53 % 1023,8 hPa 0,0 l/m 3,5 km/h (1 Bft) O-NO 67 1,6 C 14,8 C 4,7 km/h (1 Bft)
20.03.2015 13:20 10,5 C 10,5 C 53 % 53 % 1023,8 hPa 0,0 l/m 4,2 km/h (1 Bft) N-NO 22 1,3 C 14,0 C 4,8 km/h (1 Bft)
20.03.2015 13:25 10,7 C 10,7 C 53 % 53 % 1023,5 hPa 0,0 l/m 4,7 km/h (1 Bft) W-SW 247 1,5 C 13,8 C 5,5 km/h (1 Bft)
20.03.2015 13:30 10,8 C 10,8 C 53 % 53 % 1023,5 hPa 0,0 l/m 4,0 km/h (1 Bft) N-NO 22 1,6 C 14,1 C 5,5 km/h (1 Bft)
20.03.2015 13:35 10,8 C 10,8 C 52 % 52 % 1023,5 hPa 0,0 l/m 4,3 km/h (1 Bft) N 360 1,3 C 14,8 C 2,1 km/h (1 Bft)
20.03.2015 13:40 10,9 C 10,9 C 52 % 52 % 1023,5 hPa 0,0 l/m 4,7 km/h (1 Bft) N-NO 22 1,4 C 15,4 C 3,7 km/h (1 Bft)
20.03.2015 13:45 11,1 C 11,1 C 52 % 52 % 1023,2 hPa 0,0 l/m 4,2 km/h (1 Bft) O-NO 67 1,6 C 16,2 C 3,7 km/h (1 Bft)
20.03.2015 13:50 11,0 C 11,0 C 52 % 52 % 1023,2 hPa 0,0 l/m 4,3 km/h (1 Bft) O-NO 67 1,5 C 16,4 C 8,0 km/h (2 Bft)
20.03.2015 13:55 10,9 C 10,9 C 52 % 52 % 1023,2 hPa 0,0 l/m 4,8 km/h (1 Bft) O-NO 67 1,4 C 16,4 C 3,5 km/h (1 Bft)
20.03.2015 14:00 10,9 C 10,9 C 52 % 52 % 1023,2 hPa 0,0 l/m 4,7 km/h (1 Bft) NO 45 1,4 C 16,5 C 3,4 km/h (1 Bft)
20.03.2015 14:05 11,0 C 11,0 C 52 % 52 % 1022,6 hPa 0,0 l/m 3,7 km/h (1 Bft) O-NO 67 1,5 C 16,7 C 4,0 km/h (1 Bft)
20.03.2015 14:10 11,1 C 11,1 C 52 % 52 % 1022,6 hPa 0,0 l/m 3,7 km/h (1 Bft) NO 45 1,6 C 16,7 C 7,4 km/h (2 Bft)
20.03.2015 14:15 11,2 C 11,2 C 51 % 51 % 1022,6 hPa 0,0 l/m 4,7 km/h (1 Bft) NW 315 1,4 C 16,6 C 3,9 km/h (1 Bft)
20.03.2015 14:20 11,4 C 11,4 C 52 % 52 % 1022,6 hPa 0,0 l/m 4,2 km/h (1 Bft) N-NO 22 1,9 C 16,9 C 3,1 km/h (1 Bft)
20.03.2015 14:25 11,6 C 11,6 C 49 % 49 % 1022,1 hPa 0,0 l/m 3,2 km/h (1 Bft) O-NO 67 1,3 C 17,2 C 7,4 km/h (2 Bft)
20.03.2015 14:30 11,4 C 11,4 C 49 % 49 % 1022,1 hPa 0,0 l/m 3,2 km/h (1 Bft) NO 45 1,1 C 17,4 C 7,1 km/h (2 Bft)
20.03.2015 14:35 11,6 C 11,6 C 49 % 49 % 1022,1 hPa 0,0 l/m 3,1 km/h (1 Bft) NW 315 1,3 C 17,5 C 2,7 km/h (1 Bft)
20.03.2015 14:40 11,6 C 11,6 C 49 % 49 % 1022,1 hPa 0,0 l/m 3,1 km/h (1 Bft) NO 45 1,3 C 17,6 C 3,9 km/h (1 Bft)
20.03.2015 14:45 11,6 C 11,6 C 48 % 48 % 1021,5 hPa 0,0 l/m 3,4 km/h (1 Bft) NO 45 1,0 C 17,3 C 4,5 km/h (1 Bft)
20.03.2015 14:50 11,5 C 11,5 C 48 % 48 % 1021,5 hPa 0,0 l/m 4,0 km/h (1 Bft) O-NO 67 0,9 C 17,3 C 5,0 km/h (1 Bft)
20.03.2015 14:55 11,4 C 11,4 C 48 % 48 % 1021,5 hPa 0,0 l/m 3,9 km/h (1 Bft) NO 45 0,8 C 16,9 C 6,4 km/h (2 Bft)
20.03.2015 15:00 11,6 C 11,6 C 49 % 49 % 1021,5 hPa 0,0 l/m 3,2 km/h (1 Bft) NO 45 1,3 C 16,9 C 3,9 km/h (1 Bft)
20.03.2015 15:05 11,6 C 11,6 C 47 % 47 % 1021,1 hPa 0,0 l/m 3,4 km/h (1 Bft) NO 45 0,7 C 17,1 C 6,0 km/h (2 Bft)
20.03.2015 15:10 11,6 C 11,6 C 47 % 47 % 1021,1 hPa 0,0 l/m 3,5 km/h (1 Bft) N-NO 22 0,7 C 16,8 C 2,3 km/h (1 Bft)
20.03.2015 15:15 11,7 C 11,7 C 47 % 47 % 1021,1 hPa 0,0 l/m 3,7 km/h (1 Bft) N-NO 22 0,8 C 16,9 C 8,9 km/h (2 Bft)
20.03.2015 15:20 11,5 C 11,5 C 47 % 47 % 1021,1 hPa 0,0 l/m 3,2 km/h (1 Bft) N-NO 22 0,6 C 16,7 C 4,7 km/h (1 Bft)
20.03.2015 15:25 11,5 C 11,5 C 47 % 47 % 1020,4 hPa 0,0 l/m 3,1 km/h (1 Bft) N-NO 22 0,6 C 16,6 C 2,4 km/h (1 Bft)
20.03.2015 15:30 11,6 C 11,6 C 47 % 47 % 1020,4 hPa 0,0 l/m 2,7 km/h (1 Bft) NO 45 0,7 C 16,7 C 2,1 km/h (1 Bft)
20.03.2015 15:35 11,6 C 11,6 C 46 % 46 % 1020,4 hPa 0,0 l/m 3,1 km/h (1 Bft) O-NO 67 0,4 C 16,7 C 2,7 km/h (1 Bft)
20.03.2015 15:40 11,6 C 11,6 C 46 % 46 % 1020,4 hPa 0,0 l/m 3,2 km/h (1 Bft) NO 45 0,4 C 16,6 C 3,9 km/h (1 Bft)
20.03.2015 15:45 11,5 C 11,5 C 46 % 46 % 1019,8 hPa 0,0 l/m 3,9 km/h (1 Bft) NO 45 0,3 C 16,1 C 4,3 km/h (1 Bft)
20.03.2015 15:50 11,4 C 11,4 C 46 % 46 % 1019,8 hPa 0,0 l/m 3,7 km/h (1 Bft) NO 45 0,2 C 15,7 C 0,0 km/h (0 Bft)
20.03.2015 15:55 11,5 C 11,5 C 46 % 46 % 1019,8 hPa 0,0 l/m 2,9 km/h (1 Bft) O-NO 67 0,3 C 15,3 C 3,7 km/h (1 Bft)
20.03.2015 16:00 11,5 C 11,5 C 46 % 46 % 1019,8 hPa 0,0 l/m 3,4 km/h (1 Bft) N-NW 337 0,3 C 14,7 C 4,8 km/h (1 Bft)
20.03.2015 16:05 11,5 C 11,5 C 46 % 46 % 1019,7 hPa 0,0 l/m 4,0 km/h (1 Bft) NO 45 0,3 C 14,1 C 5,5 km/h (1 Bft)
20.03.2015 16:10 11,4 C 11,4 C 46 % 46 % 1019,7 hPa 0,0 l/m 3,4 km/h (1 Bft) N-NW 337 0,2 C 13,8 C 2,7 km/h (1 Bft)
20.03.2015 16:15 11,3 C 11,3 C 45 % 45 % 1019,7 hPa 0,0 l/m 3,2 km/h (1 Bft) NO 45 -0,2 C 13,7 C 4,7 km/h (1 Bft)
20.03.2015 16:20 11,3 C 11,3 C 46 % 46 % 1019,7 hPa 0,0 l/m 2,7 km/h (1 Bft) NO 45 0,1 C 13,6 C 2,9 km/h (1 Bft)
20.03.2015 16:25 11,3 C 11,3 C 46 % 46 % 1019,6 hPa 0,0 l/m 2,1 km/h (1 Bft) NO 45 0,1 C 13,1 C 4,7 km/h (1 Bft)
20.03.2015 16:30 11,3 C 11,3 C 46 % 46 % 1019,6 hPa 0,0 l/m 2,6 km/h (1 Bft) NO 45 0,1 C 13,0 C 1,6 km/h (1 Bft)
20.03.2015 16:35 11,2 C 11,2 C 45 % 45 % 1019,6 hPa 0,0 l/m 3,9 km/h (1 Bft) N-NO 22 -0,3 C 12,7 C 4,3 km/h (1 Bft)
20.03.2015 16:40 11,2 C 11,2 C 46 % 46 % 1019,6 hPa 0,0 l/m 2,9 km/h (1 Bft) N-NO 22 0,0 C 12,7 C 0,0 km/h (0 Bft)
20.03.2015 16:45 11,1 C 11,1 C 46 % 46 % 1019,3 hPa 0,0 l/m 1,8 km/h (1 Bft) NO 45 -0,1 C 12,8 C 0,0 km/h (0 Bft)
20.03.2015 16:50 11,0 C 11,0 C 45 % 45 % 1019,3 hPa 0,0 l/m 2,4 km/h (1 Bft) O-SO 112 -0,5 C 12,6 C 2,4 km/h (1 Bft)
20.03.2015 16:55 11,0 C 11,0 C 46 % 46 % 1019,3 hPa 0,0 l/m 2,4 km/h (1 Bft) N 360 -0,2 C 12,0 C 4,0 km/h (1 Bft)
20.03.2015 17:00 11,1 C 11,1 C 45 % 45 % 1019,3 hPa 0,0 l/m 2,6 km/h (1 Bft) O-NO 67 -0,4 C 11,7 C 5,3 km/h (1 Bft)
20.03.2015 17:05 10,8 C 10,8 C 46 % 46 % 1019,2 hPa 0,0 l/m 2,4 km/h (1 Bft) O-NO 67 -0,3 C 11,2 C 2,9 km/h (1 Bft)
20.03.2015 17:10 10,5 C 10,6 C 46 % 46 % 1019,2 hPa 0,0 l/m 2,3 km/h (1 Bft) N-NO 22 -0,6 C 10,7 C 3,4 km/h (1 Bft)
20.03.2015 17:15 10,6 C 10,6 C 46 % 46 % 1019,2 hPa 0,0 l/m 2,3 km/h (1 Bft) N 360 -0,5 C 10,4 C 2,9 km/h (1 Bft)
20.03.2015 17:20 10,4 C 10,6 C 46 % 46 % 1019,2 hPa 0,0 l/m 1,8 km/h (1 Bft) O-NO 67 -0,7 C 10,2 C 1,8 km/h (1 Bft)
20.03.2015 17:25 9,9 C 10,3 C 47 % 47 % 1019,0 hPa 0,0 l/m 0,8 km/h (0 Bft) N-NO 22 -0,9 C 9,9 C 2,4 km/h (1 Bft)
20.03.2015 17:30 9,8 C 10,1 C 47 % 47 % 1019,0 hPa 0,0 l/m 1,3 km/h (1 Bft) O-SO 112 -1,0 C 9,6 C 0,0 km/h (0 Bft)
20.03.2015 17:35 9,3 C 9,9 C 47 % 47 % 1019,0 hPa 0,0 l/m 1,1 km/h (1 Bft) NO 45 -1,4 C 9,3 C 0,0 km/h (0 Bft)
20.03.2015 17:40 9,3 C 9,8 C 47 % 47 % 1019,0 hPa 0,0 l/m 0,3 km/h (0 Bft) O-NO 67 -1,4 C 9,0 C 0,0 km/h (0 Bft)
20.03.2015 17:45 9,0 C 9,5 C 47 % 47 % 1019,1 hPa 0,0 l/m 0,2 km/h (0 Bft) N-NO 22 -1,7 C 8,5 C 2,1 km/h (1 Bft)
20.03.2015 17:50 8,7 C 9,4 C 47 % 47 % 1019,1 hPa 0,0 l/m 0,0 km/h (0 Bft) NO 45 -2,0 C 8,3 C 0,0 km/h (0 Bft)
20.03.2015 17:55 8,4 C 9,2 C 48 % 48 % 1019,1 hPa 0,0 l/m 0,0 km/h (0 Bft) O 90 -2,0 C 8,0 C 0,0 km/h (0 Bft)
20.03.2015 18:00 8,5 C 9,2 C 48 % 48 % 1019,1 hPa 0,0 l/m 0,0 km/h (0 Bft) O-SO 112 -1,9 C 7,9 C 2,1 km/h (1 Bft)
20.03.2015 18:05 8,5 C 9,2 C 48 % 48 % 1018,8 hPa 0,0 l/m 1,0 km/h (0 Bft) S-SO 157 -1,9 C 7,9 C 2,7 km/h (1 Bft)
20.03.2015 18:10 8,4 C 9,1 C 48 % 48 % 1018,8 hPa 0,0 l/m 1,4 km/h (1 Bft) SO 135 -2,0 C 7,9 C 2,4 km/h (1 Bft)
20.03.2015 18:15 8,0 C 8,9 C 48 % 48 % 1018,8 hPa 0,0 l/m 1,6 km/h (1 Bft) S-SO 157 -2,3 C 7,6 C 2,6 km/h (1 Bft)
20.03.2015 18:20 7,8 C 8,7 C 48 % 48 % 1018,8 hPa 0,0 l/m 1,9 km/h (1 Bft) SO 135 -2,5 C 7,3 C 3,2 km/h (1 Bft)
20.03.2015 18:25 7,5 C 8,3 C 49 % 49 % 1018,8 hPa 0,0 l/m 2,6 km/h (1 Bft) S-SO 157 -2,5 C 7,0 C 3,2 km/h (1 Bft)
20.03.2015 18:30 7,3 C 8,1 C 50 % 50 % 1018,8 hPa 0,0 l/m 2,9 km/h (1 Bft) SO 135 -2,4 C 6,8 C 3,5 km/h (1 Bft)
20.03.2015 18:35 7,0 C 7,9 C 50 % 50 % 1018,8 hPa 0,0 l/m 3,1 km/h (1 Bft) SO 135 -2,7 C 6,5 C 4,0 km/h (1 Bft)
20.03.2015 18:40 6,9 C 7,7 C 50 % 50 % 1018,8 hPa 0,0 l/m 2,9 km/h (1 Bft) SO 135 -2,8 C 6,2 C 2,7 km/h (1 Bft)
20.03.2015 18:45 6,6 C 7,6 C 50 % 50 % 1019,1 hPa 0,0 l/m 2,4 km/h (1 Bft) SO 135 -3,1 C 5,9 C 1,8 km/h (1 Bft)
20.03.2015 18:50 5,5 C 6,9 C 51 % 51 % 1019,1 hPa 0,0 l/m 1,9 km/h (1 Bft) S-SO 157 -3,8 C 5,7 C 0,0 km/h (0 Bft)
20.03.2015 18:55 5,2 C 6,2 C 53 % 53 % 1019,1 hPa 0,0 l/m 0,8 km/h (0 Bft) S-SO 157 -3,6 C 4,9 C 0,0 km/h (0 Bft)
20.03.2015 19:00 4,7 C 5,8 C 55 % 55 % 1019,1 hPa 0,0 l/m 0,2 km/h (0 Bft) S-SO 157 -3,6 C 4,3 C 0,0 km/h (0 Bft)
20.03.2015 19:05 4,5 C 5,6 C 56 % 56 % 1019,1 hPa 0,0 l/m 0,0 km/h (0 Bft) S-SO 157 -3,5 C 3,5 C 0,0 km/h (0 Bft)
20.03.2015 19:10 4,5 C 5,6 C 56 % 56 % 1019,1 hPa 0,0 l/m 0,0 km/h (0 Bft) S-SO 157 -3,5 C 3,3 C 0,0 km/h (0 Bft)
20.03.2015 19:15 3,8 C 5,2 C 56 % 56 % 1019,1 hPa 0,0 l/m 0,0 km/h (0 Bft) S-SO 157 -4,2 C 2,7 C 0,0 km/h (0 Bft)
20.03.2015 19:20 3,4 C 4,9 C 57 % 56 % 1019,1 hPa 0,0 l/m 0,0 km/h (0 Bft) S-SO 157 -4,3 C 2,3 C 0,0 km/h (0 Bft)
20.03.2015 19:25 3,5 C 4,5 C 58 % 57 % 1019,0 hPa 0,0 l/m 0,0 km/h (0 Bft) O-SO 112 -4,0 C 1,8 C 0,0 km/h (0 Bft)
20.03.2015 19:30 3,4 C 4,4 C 59 % 58 % 1019,0 hPa 0,0 l/m 0,0 km/h (0 Bft) O-SO 112 -3,8 C 1,8 C 0,0 km/h (0 Bft)
20.03.2015 19:35 2,7 C 4,0 C 59 % 58 % 1019,0 hPa 0,0 l/m 0,0 km/h (0 Bft) S-SO 157 -4,5 C 1,5 C 0,0 km/h (0 Bft)
20.03.2015 19:40 2,4 C 3,8 C 59 % 58 % 1019,0 hPa 0,0 l/m 0,0 km/h (0 Bft) S-SO 157 -4,8 C 1,0 C 0,0 km/h (0 Bft)
20.03.2015 19:45 2,4 C 3,4 C 61 % 59 % 1019,2 hPa 0,0 l/m 0,0 km/h (0 Bft) S-SO 157 -4,3 C 0,7 C 0,0 km/h (0 Bft)
20.03.2015 19:50 2,8 C 3,4 C 64 % 59 % 1019,2 hPa 0,0 l/m 0,5 km/h (0 Bft) SO 135 -3,3 C 0,7 C 2,4 km/h (1 Bft)
20.03.2015 19:55 2,6 C 3,5 C 63 % 60 % 1019,2 hPa 0,0 l/m 0,5 km/h (0 Bft) O-SO 112 -3,7 C 0,9 C 0,0 km/h (0 Bft)
20.03.2015 20:00 2,4 C 3,4 C 63 % 60 % 1019,2 hPa 0,0 l/m 0,2 km/h (0 Bft) O-SO 112 -3,9 C 0,8 C 0,0 km/h (0 Bft)
20.03.2015 20:05 2,3 C 3,3 C 64 % 60 % 1019,2 hPa 0,0 l/m 0,0 km/h (0 Bft) O-SO 112 -3,8 C 0,7 C 0,0 km/h (0 Bft)
20.03.2015 20:10 2,3 C 3,1 C 65 % 60 % 1019,2 hPa 0,0 l/m 0,0 km/h (0 Bft) O 90 -3,6 C 0,6 C 0,0 km/h (0 Bft)
20.03.2015 20:15 1,7 C 2,7 C 64 % 62 % 1019,2 hPa 0,0 l/m 0,0 km/h (0 Bft) O 90 -4,4 C 0,3 C 0,0 km/h (0 Bft)
20.03.2015 20:20 1,9 C 2,7 C 66 % 63 % 1019,2 hPa 0,0 l/m 0,0 km/h (0 Bft) O-SO 112 -3,8 C 0,1 C 0,0 km/h (0 Bft)
20.03.2015 20:22 1,9 C 2,7 C 66 % 63 % 1019,2 hPa 0,0 l/m 0,0 km/h (0 Bft) O-SO 112 -3,8 C 0,1 C 0,0 km/h (0 Bft)
20.03.2015 20:25 1,6 C 2,6 C 66 % 63 % 1019,2 hPa 0,0 l/m 0,0 km/h (0 Bft) O 90 -4,1 C 0,0 C 0,0 km/h (0 Bft)
20.03.2015 20:30 1,4 C 2,3 C 66 % 64 % 1019,2 hPa 0,0 l/m 0,0 km/h (0 Bft) O 90 -4,2 C -0,2 C 0,0 km/h (0 Bft)
20.03.2015 20:35 1,2 C 2,3 C 66 % 64 % 1019,2 hPa 0,0 l/m 0,0 km/h (0 Bft) O 90 -4,4 C -0,4 C 0,0 km/h (0 Bft)
20.03.2015 20:39 1,3 C 2,2 C 67 % 64 % 1019,2 hPa 0,0 l/m 0,0 km/h (0 Bft) O 90 -4,1 C -0,5 C 0,0 km/h (0 Bft)
20.03.2015 20:40 1,3 C 2,2 C 67 % 64 % 1019,2 hPa 0,0 l/m 0,0 km/h (0 Bft) O 90 -4,1 C -0,5 C 0,0 km/h (0 Bft)
20.03.2015 20:45 1,0 C 2,0 C 67 % 65 % 1019,1 hPa 0,0 l/m 0,0 km/h (0 Bft) O 90 -4,4 C -0,6 C 0,0 km/h (0 Bft)
20.03.2015 20:50 1,0 C 1,9 C 67 % 65 % 1019,1 hPa 0,0 l/m 0,0 km/h (0 Bft) O 90 -4,4 C -0,6 C 0,0 km/h (0 Bft)
20.03.2015 20:55 0,9 C 1,9 C 69 % 66 % 1019,1 hPa 0,0 l/m 0,0 km/h (0 Bft) O 90 -4,1 C -0,9 C 0,0 km/h (0 Bft)
20.03.2015 21:00 0,8 C 1,8 C 69 % 66 % 1019,1 hPa 0,0 l/m 0,0 km/h (0 Bft) O 90 -4,2 C -1,0 C 0,0 km/h (0 Bft)
20.03.2015 21:05 0,8 C 1,8 C 69 % 66 % 1019,1 hPa 0,0 l/m 0,0 km/h (0 Bft) O 90 -4,2 C -1,0 C 0,0 km/h (0 Bft)
20.03.2015 21:10 0,8 C 1,8 C 70 % 67 % 1019,1 hPa 0,0 l/m 0,0 km/h (0 Bft) O 90 -4,0 C -1,1 C 0,0 km/h (0 Bft)
20.03.2015 21:15 0,4 C 1,4 C 69 % 67 % 1019,1 hPa 0,0 l/m 0,0 km/h (0 Bft) O 90 -4,6 C -1,2 C 0,0 km/h (0 Bft)
20.03.2015 21:20 0,4 C 1,3 C 70 % 67 % 1019,1 hPa 0,0 l/m 0,0 km/h (0 Bft) O 90 -4,4 C -1,3 C 0,0 km/h (0 Bft)
20.03.2015 21:25 0,1 C 1,1 C 70 % 67 % 1019,0 hPa 0,0 l/m 0,0 km/h (0 Bft) O 90 -4,7 C -1,4 C 0,0 km/h (0 Bft)
20.03.2015 21:30 0,0 C 1,0 C 71 % 68 % 1019,0 hPa 0,0 l/m 0,0 km/h (0 Bft) O 90 -4,6 C -1,5 C 0,0 km/h (0 Bft)
20.03.2015 21:35 -0,1 C 0,8 C 71 % 68 % 1019,0 hPa 0,0 l/m 0,0 km/h (0 Bft) O 90 -4,7 C -1,6 C 0,0 km/h (0 Bft)
20.03.2015 21:40 0,1 C 0,9 C 72 % 69 % 1019,0 hPa 0,0 l/m 0,0 km/h (0 Bft) O 90 -4,3 C -1,6 C 0,0 km/h (0 Bft)
20.03.2015 21:45 0,0 C 0,8 C 73 % 69 % 1018,9 hPa 0,0 l/m 0,0 km/h (0 Bft) O 90 -4,2 C -1,5 C 0,0 km/h (0 Bft)
20.03.2015 21:50 -0,1 C 0,7 C 73 % 69 % 1018,9 hPa 0,0 l/m 0,0 km/h (0 Bft) O 90 -4,3 C -1,7 C 0,0 km/h (0 Bft)
20.03.2015 21:55 -0,2 C 0,5 C 73 % 70 % 1018,9 hPa 0,0 l/m 0,0 km/h (0 Bft) O 90 -4,4 C -1,6 C 0,0 km/h (0 Bft)
20.03.2015 22:00 -0,1 C 0,5 C 74 % 70 % 1018,9 hPa 0,0 l/m 0,0 km/h (0 Bft) O-SO 112 -4,2 C -1,7 C 0,0 km/h (0 Bft)
20.03.2015 22:05 -0,1 C 0,5 C 74 % 71 % 1018,9 hPa 0,0 l/m 0,0 km/h (0 Bft) O 90 -4,2 C -1,7 C 0,0 km/h (0 Bft)
20.03.2015 22:10 0,1 C 0,8 C 75 % 71 % 1018,9 hPa 0,0 l/m 0,0 km/h (0 Bft) O 90 -3,8 C -1,5 C 0,0 km/h (0 Bft)
20.03.2015 22:15 0,0 C 0,8 C 75 % 71 % 1018,9 hPa 0,0 l/m 0,0 km/h (0 Bft) O-SO 112 -3,9 C -1,5 C 0,0 km/h (0 Bft)
20.03.2015 22:20 0,0 C 0,8 C 75 % 71 % 1018,9 hPa 0,0 l/m 0,0 km/h (0 Bft) O 90 -3,9 C -1,6 C 0,0 km/h (0 Bft)
20.03.2015 22:25 -0,3 C 0,5 C 75 % 71 % 1018,9 hPa 0,0 l/m 0,0 km/h (0 Bft) O 90 -4,2 C -1,7 C 0,0 km/h (0 Bft)
20.03.2015 22:30 -0,4 C 0,3 C 75 % 71 % 1018,9 hPa 0,0 l/m 0,0 km/h (0 Bft) O 90 -4,3 C -1,9 C 0,0 km/h (0 Bft)
20.03.2015 22:35 -0,6 C 0,1 C 75 % 71 % 1018,9 hPa 0,0 l/m 0,0 km/h (0 Bft) O 90 -4,5 C -2,0 C 0,0 km/h (0 Bft)
20.03.2015 22:40 -0,5 C 0,1 C 76 % 72 % 1018,9 hPa 0,0 l/m 0,0 km/h (0 Bft) O 90 -4,2 C -2,0 C 0,0 km/h (0 Bft)
20.03.2015 22:45 -0,6 C 0,1 C 76 % 72 % 1018,7 hPa 0,0 l/m 0,0 km/h (0 Bft) O 90 -4,3 C -2,0 C 0,0 km/h (0 Bft)
20.03.2015 22:50 -0,5 C 0,1 C 76 % 72 % 1018,7 hPa 0,0 l/m 0,0 km/h (0 Bft) O 90 -4,2 C -2,1 C 0,0 km/h (0 Bft)
20.03.2015 22:55 -0,8 C 0,1 C 76 % 73 % 1018,7 hPa 0,0 l/m 0,0 km/h (0 Bft) O 90 -4,5 C -2,2 C 0,0 km/h (0 Bft)
20.03.2015 23:00 -0,9 C 0,0 C 76 % 73 % 1018,7 hPa 0,0 l/m 0,0 km/h (0 Bft) O 90 -4,6 C -2,2 C 0,0 km/h (0 Bft)
20.03.2015 23:05 -0,6 C 0,1 C 77 % 73 % 1018,6 hPa 0,0 l/m 0,0 km/h (0 Bft) O 90 -4,1 C -2,1 C 0,0 km/h (0 Bft)
20.03.2015 23:10 -0,5 C 0,1 C 77 % 73 % 1018,6 hPa 0,0 l/m 0,0 km/h (0 Bft) O 90 -4,0 C -2,0 C 0,0 km/h (0 Bft)
20.03.2015 23:15 -0,7 C 0,1 C 77 % 74 % 1018,6 hPa 0,0 l/m 0,0 km/h (0 Bft) O 90 -4,2 C -1,9 C 0,0 km/h (0 Bft)
20.03.2015 23:20 -0,8 C 0,0 C 77 % 74 % 1018,6 hPa 0,0 l/m 0,0 km/h (0 Bft) O 90 -4,3 C -1,9 C 0,0 km/h (0 Bft)
20.03.2015 23:25 -0,8 C 0,0 C 77 % 74 % 1018,3 hPa 0,0 l/m 0,0 km/h (0 Bft) O 90 -4,3 C -2,1 C 0,0 km/h (0 Bft)
20.03.2015 23:30 -0,8 C -0,1 C 77 % 74 % 1018,3 hPa 0,0 l/m 0,0 km/h (0 Bft) O 90 -4,3 C -2,1 C 0,0 km/h (0 Bft)
20.03.2015 23:35 -0,9 C -0,3 C 77 % 74 % 1018,3 hPa 0,0 l/m 0,0 km/h (0 Bft) O 90 -4,4 C -2,2 C 0,0 km/h (0 Bft)
20.03.2015 23:40 -1,1 C -0,3 C 77 % 74 % 1018,3 hPa 0,0 l/m 0,0 km/h (0 Bft) O 90 -4,6 C -2,2 C 0,0 km/h (0 Bft)
20.03.2015 23:45 -1,1 C -0,5 C 77 % 74 % 1018,2 hPa 0,0 l/m 0,0 km/h (0 Bft) O 90 -4,6 C -2,3 C 0,0 km/h (0 Bft)
20.03.2015 23:50 -1,0 C -0,6 C 78 % 74 % 1018,2 hPa 0,0 l/m 0,0 km/h (0 Bft) O 90 -4,3 C -2,3 C 0,0 km/h (0 Bft)
20.03.2015 23:55 -1,1 C -0,6 C 78 % 75 % 1018,2 hPa 0,0 l/m 0,0 km/h (0 Bft) O 90 -4,4 C -2,3 C 0,0 km/h (0 Bft)
_ Min-Zeit 06:55 07:00 17:00 17:00 23:55 - 23:55 - - 05:45 08:05 23:55
Minimum _ -3,3 C -2,9 C 45 % 45 % 1018,2 hPa - 0,0 km/h (0 Bft) - - -5,9 C -3,2 C 0,0 km/h (0 Bft)
_ Max-Zeit 15:15 15:15 07:35 08:25 13:00 23:55 13:55 - - 09:25 09:30 12:50
Maximum _ 11,7 C 11,7 C 85 % 83 % 1023,9 hPa 0,0 l/m 4,8 km/h
O-NO (1 Bft)
- - 3,7 C 19,0 C 11,3 km/h
NW (2 Bft)
Durchschnitt _ 3,7 C 4,0 C 67 % 66 % 1021,2 hPa #0,0 l/m 0,9 km/h (0 Bft) NO - -2,2 C 5,0 C 1,2 km/h (1 Bft)